Location: Monfort
(47.1967°N, 0.2115°W)
Time: 09:01:49
(UTC+00:00)

Cosmos 1758 Rocket - Pass Details

Date: 24 October 2020
Orbit: 601 x 637 km, 82.5° (Epoch: 28 November)

Event Time Altitude Azimuth Distance (km) Brightness Sun altitude
Rises 17:38:31 0° 351° (N) 2,922 7.0 -7.8°
Reaches altitude 10° 17:40:46 10° 353° (N) 2,004 6.2 -8.1°
Maximum altitude 17:45:13 81° 81° (E) 632 3.5 -8.9°
Drops below altitude 10° 17:49:35 10° 168° (SSE) 1,965 6.1 -9.6°
Sets 17:51:46 0° 170° (S) 2,859 6.9 -10.0°
